User: anonymous   Login
Location: Paris
(48.8566°N, 2.3522°E)
Time: 00:30:42
(UTC+01:00)
Language:

ISS - Orbit

View from above orbital plane
View from above orbital plane
View from above satellite
View from above satellite

Ground track
Ground track

The orbit data is extracted from the following two-line orbital elements,

1 25544U 98067A   19080.54442112  .00016717  00000-0  10270-3 0  9031
2 25544  51.6365  76.9309 0003647 127.1467 233.0018 15.52831881  1639
Epoch (UTC): 21 March 2019 13:03:57
Eccentricity: 0.0003647
inclination: 51.6365°
perigee height: 406 km
apogee height: 411 km
right ascension of ascending node: 76.9309°
argument of perigee: 127.1467°
revolutions per day: 15.52831881
mean anomaly at epoch: 233.0018°
orbit number at epoch: 163

The dashed part of the orbit path shows where the satellite is in the earth's shadow,  

DLR